Hourly Data Report for May 28, 2018

TORONTO CITY
ONTARIO
Current Station Operator: ECCC - MSC

43°40'00.000" N
79°24'00.000" W
112.50 m
6158355
71508
XTO

Download Data

Hourly Data (May 2018)
Hourly Data Report for May 28, 2018
TIME
LST
Temp Definition
°C
Dew Point Definition
°C
Rel Hum Definition
%
Precip. Amount Definition
mm

Wind Dir Definition
10's deg

Wind Spd Definition
km/h
Visibility Definition
km
Stn Press Definition
kPa
Hmdx Definition


Wind Chill Definition


Weather Definition


00:00 18.5 14.8 79 0.0 LegendMM LegendMM   99.92     LegendNANA
01:00 17.4 14.1 81 0.0 LegendMM LegendMM   99.92     LegendNANA
02:00 17.3 14.0 81 0.0 LegendMM LegendMM   99.92     LegendNANA
03:00 17.1 13.7 80 0.0 LegendMM LegendMM   99.90     LegendNANA
04:00 16.7 13.7 83 0.0 LegendMM LegendMM   99.88     LegendNANA
05:00 16.7 13.8 83 0.0 LegendMM LegendMM   99.93     LegendNANA
06:00 17.4 13.7 79 0.0 LegendMM LegendMM   99.96     LegendNANA
07:00 19.5 14.9 75 0.0 LegendMM LegendMM   99.99     LegendNANA
08:00 22.8 15.1 62 0.0 LegendMM LegendMM   100.00 27   LegendNANA
09:00 21.3 12.6 57 0.0 LegendMM LegendMM   100.02     LegendNANA
10:00 23.0 13.7 56 0.0 LegendMM LegendMM   100.02 26   LegendNANA
11:00 25.3 13.9 49 0.0 LegendMM LegendMM   100.02 29   LegendNANA
12:00 25.9 16.0 54 0.0 LegendMM LegendMM   100.03 31   LegendNANA
13:00 28.0 15.0 45 0.0 LegendMM LegendMM   100.01 32   LegendNANA
14:00 29.0 14.8 42 0.0 LegendMM LegendMM   99.98 33   LegendNANA
15:00 29.7 14.1 39 0.0 LegendMM LegendMM   99.94 33   LegendNANA
16:00 29.3 12.5 36 0.0 LegendMM LegendMM   99.90 32   LegendNANA
17:00 29.3 13.8 39 0.0 LegendMM LegendMM   99.86 33   LegendNANA
18:00 28.8 14.2 41 0.0 LegendMM LegendMM   99.87 32   LegendNANA
19:00 28.9 13.7 39 0.0 LegendMM LegendMM   99.94 32   LegendNANA
20:00 27.0 13.3 43 0.0 LegendMM LegendMM   99.99 30   LegendNANA
21:00 26.3 13.3 45 0.0 LegendMM LegendMM   100.02 29   LegendNANA
22:00 24.8 13.4 49 0.0 LegendMM LegendMM   100.04 28   LegendNANA
23:00 24.3 13.9 52 0.0 LegendMM LegendMM   100.05 28   LegendNANA

Notes on Data Quality.

Legend

  • E = Estimated
  • M = Missing
  • NA = Not Available*
  • [empty] = Indicates an unobserved value
Date modified: